This is the latest recevied weather packets stored in our database for station/object KC0SIQ-13. If no packets are shown the sender has not sent any weather packets the latest 10 day(s).
| Time | Temp. | Humidity | Pressure | Rain* | Wind** | Luminosity | Snow |
|---|---|---|---|---|---|---|---|
| 1777360913 | 2.78° C | 94% | 1013.9 hPa | 0 mm | - | 0 W/m² | - |
| 1777360611 | 3.33° C | 94% | 1014.2 hPa | 0 mm | - | 0 W/m² | - |
| 1777360306 | 3.33° C | 94% | 1013.8 hPa | 0 mm | - | 0 W/m² | - |
| 1777360004 | 3.33° C | 93% | 1013.5 hPa | 0 mm | - | 0 W/m² | - |
| 1777359701 | 3.33° C | 93% | 1014 hPa | 0 mm | - | 0 W/m² | - |
| 1777359398 | 3.33° C | 93% | 1013.8 hPa | 0 mm | - | 0 W/m² | - |
| 1777359094 | 3.33° C | 94% | 1013.4 hPa | 0 mm | - | 0 W/m² | - |
| 1777358792 | 3.33° C | 95% | 1013.7 hPa | 0 mm | - | 0 W/m² | - |
| 1777358489 | 3.33° C | 95% | 1014 hPa | 0 mm | - | 0 W/m² | - |
| 1777358187 | 3.33° C | 95% | 1013.9 hPa | 0 mm | - | 0 W/m² | - |
| 1777357885 | 3.33° C | 95% | 1013.9 hPa | 0 mm | - | 0 W/m² | - |
| 1777357582 | 3.33° C | 95% | 1013.9 hPa | 0 mm | - | 0 W/m² | - |
| 1777357279 | 3.33° C | 96% | 1013.7 hPa | 0 mm | - | 0 W/m² | - |
| 1777356975 | 3.89° C | 97% | 1013.7 hPa | 1.78 mm | - | 0 W/m² | - |
| 1777356673 | 3.89° C | 97% | 1013.5 hPa | 1.78 mm | - | 0 W/m² | - |
| 1777356370 | 3.89° C | 97% | 1013.7 hPa | 1.27 mm | - | 0 W/m² | - |
| 1777356067 | 3.89° C | 97% | 1013.4 hPa | 3.05 mm | - | 0 W/m² | - |
| 1777355763 | 3.89° C | 97% | 1013.3 hPa | 4.83 mm | - | 0 W/m² | - |
| 1777355460 | 3.89° C | 97% | 1013.5 hPa | 4.32 mm | - | 0 W/m² | - |
| 1777355156 | 3.89° C | 97% | 1013.4 hPa | 3.05 mm | - | 0 W/m² | - |
| 1777354853 | 3.89° C | 97% | 1013.4 hPa | 1.78 mm | - | 0 W/m² | - |
| 1777354549 | 3.89° C | 97% | 1013.4 hPa | 3.05 mm | - | 0 W/m² | - |
| 1777354245 | 3.89° C | 97% | 1013.4 hPa | 3.05 mm | - | 0 W/m² | - |
| 1777353942 | 3.89° C | 97% | 1013.4 hPa | 1.78 mm | - | 0 W/m² | - |
| 1777353638 | 3.89° C | 97% | 1013.3 hPa | 1.78 mm | - | 0 W/m² | - |
* Rain latest hour (hover to see other rain measurements)
** Current wind speed in m/s (hover to see current wind gust speed)